Liberal, Kansas, United States (67901)
Lat: 37.04N, Lon: 100.92W
Wx Zone: KSZ086
Local Info
Past Weather Observations for Monday, July 21, 2014

NOTE: This archive is for the closest National Weather Service station to Liberal. Information may differ from the station used for current weather conditions.

Click here for Long-term Archive

Time Weather Temperature Dewpoint Humidity Pressure Winds Precip Visibility
23:55
Mostly Cloudy
72°F / 22°C 63°F / 17°C 73% 30.18 in
(1022 mb)
SSE 4.6 mph
(SSE 7 kph)
0.10 in
(2.54 mm)
10SM
23:35
Overcast
Thunder Storms
72°F / 22°C 64°F / 18°C 78% 30.21 in
(1023 mb)
SSE 12.7 mph
(SSE 20 kph)
0.07 in
(1.78 mm)
10SM
23:15
Overcast
Thunder Storms
72°F / 22°C 64°F / 18°C 78% 30.21 in
(1023 mb)
S 10.4 mph
(S 17 kph)
0.04 in
(1.02 mm)
10SM
22:55
Overcast
Thunder Storms
72°F / 22°C 64°F / 18°C 78% 30.21 in
(1023 mb)
SSW 11.5 mph
(SSW 19 kph)
0.12 in
(3.05 mm)
10SM
22:35
Overcast
Thunder Storms
72°F / 22°C 64°F / 18°C 78% 30.21 in
(1023 mb)
SW 11.5 mph
(SW 19 kph)
0.07 in
(1.78 mm)
10SM
22:15
Overcast
Thunder Storms
72°F / 22°C 63°F / 17°C 73% 30.21 in
(1023 mb)
SW 23 mph
(SW 37 kph)
0.03 in
(0.76 mm)
10SM
21:55
Overcast
Thunder Storms
72°F / 22°C 63°F / 17°C 73% 30.18 in
(1022 mb)
SSW 11.5 mph
(SSW 19 kph)
0.03 in
(0.76 mm)
10SM
21:35
Mostly Cloudy
73°F / 23°C 63°F / 17°C 69% 30.15 in
(1021 mb)
SSW 10.4 mph
(SSW 17 kph)
0.01 in
(0.25 mm)
10SM
21:15
Partly Cloudy
77°F / 25°C 61°F / 16°C 57% 30.15 in
(1021 mb)
W 19.6 mph
(W 32 kph)
- 10SM
20:55
Clear
79°F / 26°C 61°F / 16°C 54% 30.12 in
(1020 mb)
W 15 mph
(W 24 kph)
- 10SM
20:35
Partly Cloudy
Thunder Storms
75°F / 24°C 61°F / 16°C 61% 30.12 in
(1020 mb)
WNW 12.7 mph
(WNW 20 kph)
- 10SM
20:15
Partly Cloudy
Thunder Storms
73°F / 23°C 57°F / 14°C 57% 30.09 in
(1019 mb)
NW 28.8 mph
(NW 46 kph)
- 10SM
19:55
Partly Cloudy
82°F / 28°C 63°F / 17°C 51% 30.09 in
(1019 mb)
NW 42.6 mph
(NW 69 kph)
- 9SM
19:35
Clear
84°F / 29°C 64°F / 18°C 51% 30.04 in
(1017 mb)
SW 13.8 mph
(SW 22 kph)
- 10SM
19:15
Clear
84°F / 29°C 64°F / 18°C 51% 30.04 in
(1017 mb)
SW 18.4 mph
(SW 30 kph)
- 10SM
18:55
Clear
86°F / 30°C 63°F / 17°C 46% 30.01 in
(1016 mb)
SW 16.1 mph
(SW 26 kph)
- 10SM
18:35
Clear
90°F / 32°C 64°F / 18°C 43% 30.01 in
(1016 mb)
SW 19.6 mph
(SW 32 kph)
- 10SM
18:15
Clear
90°F / 32°C 63°F / 17°C 41% 30.01 in
(1016 mb)
S 15 mph
(S 24 kph)
- 10SM
17:55
Clear
93°F / 34°C 63°F / 17°C 36% 30.01 in
(1016 mb)
SW 13.8 mph
(SW 22 kph)
- 10SM
17:35
Clear
Thunder Storms
93°F / 34°C 63°F / 17°C 36% 30.01 in
(1016 mb)
S 18.4 mph
(S 30 kph)
- 10SM
17:15
Clear
Thunder Storms
95°F / 35°C 63°F / 17°C 34% 30.01 in
(1016 mb)
S 20.7 mph
(S 33 kph)
- 10SM
16:55
Clear
97°F / 36°C 61°F / 16°C 30% 29.98 in
(1015 mb)
S 15 mph
(S 24 kph)
- 10SM
16:35
Clear
99°F / 37°C 61°F / 16°C 29% 29.98 in
(1015 mb)
S 20.7 mph
(S 33 kph)
- 10SM
16:15
Clear
100°F / 38°C 63°F / 17°C 29% 29.98 in
(1015 mb)
S 21.9 mph
(S 35 kph)
- 10SM
15:55
Clear
102°F / 39°C 63°F / 17°C 27% 29.98 in
(1015 mb)
S 23 mph
(S 37 kph)
- 10SM
15:35
Clear
100°F / 38°C 64°F / 18°C 31% 29.98 in
(1015 mb)
S 16.1 mph
(S 26 kph)
- 10SM
15:15
Clear
100°F / 38°C 64°F / 18°C 31% 29.98 in
(1015 mb)
S 16.1 mph
(S 26 kph)
- 10SM
14:55
Clear
100°F / 38°C 64°F / 18°C 31% 30.01 in
(1016 mb)
S 21.9 mph
(S 35 kph)
- 10SM
14:35
Clear
100°F / 38°C 64°F / 18°C 31% 30.01 in
(1016 mb)
S 20.7 mph
(S 33 kph)
- 10SM
14:15
Clear
100°F / 38°C 66°F / 19°C 33% 30.01 in
(1016 mb)
S 19.6 mph
(S 32 kph)
- 10SM
13:55
Clear
100°F / 38°C 64°F / 18°C 31% 30.01 in
(1016 mb)
S 21.9 mph
(S 35 kph)
- 10SM
13:35
Clear
100°F / 38°C 64°F / 18°C 31% 30.01 in
(1016 mb)
S 18.4 mph
(S 30 kph)
- 10SM
13:15
Clear
100°F / 38°C 66°F / 19°C 33% 30.01 in
(1016 mb)
S 18.4 mph
(S 30 kph)
- 10SM
12:55
Clear
100°F / 38°C 66°F / 19°C 33% 30.01 in
(1016 mb)
S 18.4 mph
(S 30 kph)
- 10SM
12:35
Clear
99°F / 37°C 66°F / 19°C 35% 30.04 in
(1017 mb)
SSE 21.9 mph
(SSE 35 kph)
- 10SM
12:15
Clear
99°F / 37°C 66°F / 19°C 35% 30.04 in
(1017 mb)
SW 16.1 mph
(SW 26 kph)
- 10SM
11:55
Clear
97°F / 36°C 68°F / 20°C 39% 30.04 in
(1017 mb)
SSE 17.3 mph
(SSE 28 kph)
- 10SM
11:35
Clear
97°F / 36°C 68°F / 20°C 39% 30.04 in
(1017 mb)
SW 16.1 mph
(SW 26 kph)
- 10SM
11:15
Clear
95°F / 35°C 68°F / 20°C 41% 30.04 in
(1017 mb)
SW 15 mph
(SW 24 kph)
- 10SM
10:55
Clear
93°F / 34°C 68°F / 20°C 44% 30.04 in
(1017 mb)
SW 17.3 mph
(SW 28 kph)
- 10SM
10:35
Clear
91°F / 33°C 68°F / 20°C 46% 30.04 in
(1017 mb)
SW 17.3 mph
(SW 28 kph)
- 10SM
10:15
Clear
91°F / 33°C 68°F / 20°C 46% 30.04 in
(1017 mb)
SW 15 mph
(SW 24 kph)
- 10SM
09:55
Clear
90°F / 32°C 68°F / 20°C 49% 30.04 in
(1017 mb)
SSE 16.1 mph
(SSE 26 kph)
- 10SM
09:35
Clear
88°F / 31°C 66°F / 19°C 49% 30.04 in
(1017 mb)
SSE 18.4 mph
(SSE 30 kph)
- 10SM
09:15
Clear
86°F / 30°C 66°F / 19°C 52% 30.04 in
(1017 mb)
S 19.6 mph
(S 32 kph)
- 10SM
08:55
Clear
84°F / 29°C 66°F / 19°C 55% 30.04 in
(1017 mb)
S 16.1 mph
(S 26 kph)
- 10SM
08:35
Clear
82°F / 28°C 66°F / 19°C 58% 30.04 in
(1017 mb)
SSE 17.3 mph
(SSE 28 kph)
- 10SM
08:15
Clear
81°F / 27°C 66°F / 19°C 62% 30.04 in
(1017 mb)
S 17.3 mph
(S 28 kph)
- 10SM
07:55
Clear
79°F / 26°C 64°F / 18°C 61% 30.04 in
(1017 mb)
S 18.4 mph
(S 30 kph)
- 10SM
07:35
Clear
79°F / 26°C 64°F / 18°C 61% 30.04 in
(1017 mb)
S 15 mph
(S 24 kph)
- 10SM
07:15
Clear
77°F / 25°C 64°F / 18°C 65% 30.04 in
(1017 mb)
S 13.8 mph
(S 22 kph)
- 10SM
06:55
Clear
75°F / 24°C 63°F / 17°C 65% 30.04 in
(1017 mb)
SSE 12.7 mph
(SSE 20 kph)
- 10SM
06:35
Clear
73°F / 23°C 63°F / 17°C 69% 30.04 in
(1017 mb)
SSE 10.4 mph
(SSE 17 kph)
- 10SM
06:15
Clear
73°F / 23°C 63°F / 17°C 69% 30.04 in
(1017 mb)
SSE 10.4 mph
(SSE 17 kph)
- 10SM
05:55
Clear
72°F / 22°C 61°F / 16°C 69% 30.01 in
(1016 mb)
SSE 10.4 mph
(SSE 17 kph)
- 10SM
05:35
Clear
72°F / 22°C 61°F / 16°C 69% 30.01 in
(1016 mb)
SSE 9.2 mph
(SSE 15 kph)
- 10SM
05:15
Clear
72°F / 22°C 61°F / 16°C 69% 30.01 in
(1016 mb)
SSE 9.2 mph
(SSE 15 kph)
- 10SM
04:55
Clear
72°F / 22°C 61°F / 16°C 69% 30.01 in
(1016 mb)
S 9.2 mph
(S 15 kph)
- 10SM
04:35
Clear
72°F / 22°C 61°F / 16°C 69% 30.01 in
(1016 mb)
S 9.2 mph
(S 15 kph)
- 10SM
04:15
Clear
72°F / 22°C 61°F / 16°C 69% 30.01 in
(1016 mb)
SSE 8.1 mph
(SSE 13 kph)
- 10SM
03:55
Clear
72°F / 22°C 61°F / 16°C 69% 30.01 in
(1016 mb)
SSE 9.2 mph
(SSE 15 kph)
- 10SM
03:35
Clear
72°F / 22°C 61°F / 16°C 69% 30.01 in
(1016 mb)
S 9.2 mph
(S 15 kph)
- 10SM
03:15
Clear
72°F / 22°C 61°F / 16°C 69% 30.01 in
(1016 mb)
SW 6.9 mph
(SW 11 kph)
- 10SM
02:55
Clear
72°F / 22°C 61°F / 16°C 69% 30.01 in
(1016 mb)
SSE 8.1 mph
(SSE 13 kph)
- 10SM
02:35
Clear
73°F / 23°C 61°F / 16°C 65% 30.01 in
(1016 mb)
SSE 11.5 mph
(SSE 19 kph)
- 10SM
02:15
Clear
73°F / 23°C 63°F / 17°C 69% 30.01 in
(1016 mb)
SW 11.5 mph
(SW 19 kph)
- 10SM
01:55
Clear
73°F / 23°C 63°F / 17°C 69% 30.01 in
(1016 mb)
SSE 11.5 mph
(SSE 19 kph)
- 10SM
01:35
Clear
73°F / 23°C 63°F / 17°C 69% 30.01 in
(1016 mb)
S 9.2 mph
(S 15 kph)
- 10SM
01:15
Clear
75°F / 24°C 63°F / 17°C 65% 30.01 in
(1016 mb)
SSE 10.4 mph
(SSE 17 kph)
- 10SM
00:55
Clear
77°F / 25°C 63°F / 17°C 61% 30.01 in
(1016 mb)
SSE 10.4 mph
(SSE 17 kph)
- 10SM
00:35
Clear
77°F / 25°C 64°F / 18°C 65% 30.01 in
(1016 mb)
SSE 12.7 mph
(SSE 20 kph)
- 10SM
00:15
Clear
77°F / 25°C 64°F / 18°C 65% 30.01 in
(1016 mb)
SSE 11.5 mph
(SSE 19 kph)
- 10SM
Time Weather Temperature Dewpoint Humidity Pressure Winds Precip Visibility


Weather for websites

WeatherForYou.com, LLC is not responsible for any damages or problems caused by this service. Current weather conditions are obtained from the closest station including government and personal stations which may have varying degrees of accuracy. Weather forecasts are derived from the NOAA NDFD. Like all things, this site belongs to Jesus Christ... He just trusts me to maintain it. If you have any questions or comments email webmaster@weatherforyou.com

Copyright © 2014, WeatherForYou.com LLC. All rights reserved.